Hourly Data Report for October 14, 2021

QUALICUM BEACH AIRPORT
BRITISH COLUMBIA
Current Station Operator: ECCC - MSC

49°20'14.000" N
124°23'38.000" W
58.20 m
1026562
71766
VOQ

Download Data

Hourly Data (October 2021)
Hourly Data Report for October 14, 2021
TIME
LST
Temp Definition
°C
Dew Point Definition
°C
Rel Hum Definition
%
Precip. Amount Definition
mm

Wind Dir Definition
10's deg

Wind Spd Definition
km/h
Visibility Definition
km
Stn Press Definition
kPa
Hmdx Definition


Wind Chill Definition


Weather Definition


00:00 8.3 6.3 87 0.0 13 15   101.05     LegendNANA
01:00 8.3 6.5 88 0.0 13 14   101.08     LegendNANA
02:00 8.3 6.6 88 0.0 13 16   101.09     LegendNANA
03:00 8.1 5.9 86 0.0 12 17   101.09     LegendNANA
04:00 7.9 6.0 87 0.0 12 14   101.13     LegendNANA
05:00 7.5 6.0 90 0.0 12 12   101.13     LegendNANA
06:00 7.7 6.4 92 0.0 12 9   101.18     LegendNANA
07:00 8.0 6.9 93 0.0 12 7   101.23     LegendNANA
08:00 8.5 7.3 92 0.0 13 10   101.30     LegendNANA
09:00 9.2 7.6 90 0.0 12 10   101.35     LegendNANA
10:00 9.1 7.6 90 0.0 12 13   101.37     LegendNANA
11:00 9.1 7.6 90 0.0 11 16   101.40     LegendNANA
12:00 9.6 7.7 88 0.0 12 13   101.39     LegendNANA
13:00 9.5 7.7 88 0.0 11 14   101.41     LegendNANA
14:00 9.6 7.9 89 0.0 11 16   101.38     LegendNANA
15:00 9.6 8.1 90 0.0 11 13   101.37     LegendNANA
16:00 9.5 8.3 92 0.0 10 12   101.36     LegendNANA
17:00 9.5 8.5 93 0.0 11 7   101.35     LegendNANA
18:00 9.7 8.7 94 0.0 11 8   101.35     LegendNANA
19:00 9.8 8.8 93 0.0 11 6   101.34     LegendNANA
20:00 9.8 8.7 93 0.0 15 7   101.29     LegendNANA
21:00 9.7 8.7 93 0.0 14 5   101.25     LegendNANA
22:00 10.0 8.6 91 0.0 13 9   101.19     LegendNANA
23:00 10.1 8.7 91 0.0 12 14   101.13     LegendNANA

Notes on Data Quality.

Legend

  • E = Estimated
  • M = Missing
  • NA = Not Available*
  • [empty] = Indicates an unobserved value
Date modified: